AMX917 KMDW-MMMY

Flight info

Callsign AMX917
Flight time N/A
Altitude 32000
Route ACITO DCT ADELL DCT ARLYN DCT STL J101 IAH J29 MTY
Aircraft B738/M-SDE2E3FGHIRWXY/LB1

Departure

Time 2026-05-06 15:44
Airport Chicago Midway International Airport (KMDW)

Arrival

Time N/A
Airport Monterrey International Airport (MMMY)
Time Latitude Longitude Altitude Speed Heading
2026-05-06 15:29 41.78597 -87.74618 613 ft 0 kts 36°
2026-05-06 15:36 41.78593 -87.74623 613 ft 1 kts 36°
2026-05-06 15:36 41.78577 -87.74638 613 ft 3 kts 36°
2026-05-06 15:37 41.78557 -87.74657 613 ft 3 kts
2026-05-06 15:37 41.78549 -87.74656 613 ft 0 kts 314°
2026-05-06 15:37 41.78549 -87.74657 613 ft 0 kts 314°
2026-05-06 15:38 41.78560 -87.74670 613 ft 10 kts 314°
2026-05-06 15:38 41.78627 -87.74755 613 ft 10 kts 328°
2026-05-06 15:38 41.78686 -87.74771 613 ft 6 kts
2026-05-06 15:39 41.78715 -87.74743 613 ft 3 kts 41°
2026-05-06 15:39 41.78735 -87.74719 613 ft 4 kts 43°
2026-05-06 15:39 41.78769 -87.74676 613 ft 11 kts 43°
2026-05-06 15:39 41.78849 -87.74572 613 ft 20 kts 41°
2026-05-06 15:40 41.78948 -87.74448 613 ft 18 kts 44°
2026-05-06 15:40 41.79036 -87.74337 613 ft 16 kts 43°
2026-05-06 15:40 41.79083 -87.74286 612 ft 0 kts 33°
2026-05-06 15:40 41.79085 -87.74284 612 ft 0 kts 33°
2026-05-06 15:41 41.79086 -87.74284 612 ft 0 kts 33°
2026-05-06 15:43 41.79090 -87.74281 612 ft 5 kts 32°
2026-05-06 15:43 41.79126 -87.74294 612 ft 5 kts 333°
2026-05-06 15:43 41.79156 -87.74332 613 ft 0 kts 227°
2026-05-06 15:43 41.79129 -87.74370 613 ft 34 kts 227°
2026-05-06 15:44 41.78698 -87.74931 613 ft 134 kts 224°
2026-05-06 15:44 41.77841 -87.76034 880 ft 194 kts 224°
2026-05-06 15:44 41.76896 -87.77226 2348 ft 190 kts 225°
2026-05-06 15:44 41.75980 -87.78388 3613 ft 194 kts 226°
2026-05-06 15:45 41.74976 -87.79713 4553 ft 215 kts 228°
2026-05-06 15:45 41.73978 -87.81110 5849 ft 215 kts 229°
2026-05-06 15:45 41.72896 -87.82532 6786 ft 227 kts 226°
2026-05-06 15:45 41.71757 -87.83898 7256 ft 223 kts 224°
2026-05-06 15:46 41.70567 -87.85240 7525 ft 227 kts 223°
2026-05-06 15:46 41.69321 -87.86591 7803 ft 231 kts 223°
2026-05-06 15:46 41.68073 -87.87965 7998 ft 236 kts 225°
2026-05-06 15:46 41.66900 -87.89468 8293 ft 237 kts 229°
2026-05-06 15:47 41.65691 -87.91100 8261 ft 256 kts 228°
2026-05-06 15:47 41.64377 -87.92830 8326 ft 272 kts 227°
2026-05-06 15:47 41.63000 -87.94569 8614 ft 278 kts 225°
2026-05-06 15:47 41.61486 -87.96226 9009 ft 280 kts 221°
2026-05-06 15:48 41.59940 -87.97765 9598 ft 274 kts 220°
2026-05-06 15:48 41.58439 -87.99251 10169 ft 268 kts 221°
2026-05-06 15:48 41.56975 -88.00734 10741 ft 261 kts 222°
2026-05-06 15:48 41.55561 -88.02181 11305 ft 254 kts 222°
2026-05-06 15:49 41.54196 -88.03589 11866 ft 247 kts 223°
2026-05-06 15:49 41.52855 -88.04975 12439 ft 239 kts 223°
2026-05-06 15:49 41.51586 -88.06290 12992 ft 230 kts 224°
2026-05-06 15:49 41.50355 -88.07571 13545 ft 220 kts 224°
2026-05-06 15:50 41.49175 -88.08789 14109 ft 210 kts 224°
2026-05-06 15:50 41.48050 -88.09946 14667 ft 198 kts 225°
2026-05-06 15:50 41.47000 -88.11025 15228 ft 185 kts 226°
2026-05-06 15:50 41.46017 -88.12030 15694 ft 175 kts 226°
2026-05-06 15:51 41.45025 -88.13075 15682 ft 190 kts 226°
2026-05-06 15:51 41.43960 -88.14187 15808 ft 198 kts 226°
2026-05-06 15:51 41.42842 -88.15340 15876 ft 207 kts 225°
2026-05-06 15:51 41.41644 -88.16576 15986 ft 231 kts 225°
2026-05-06 15:52 41.40332 -88.17867 16708 ft 244 kts 220°
2026-05-06 15:52 41.38757 -88.18967 17366 ft 265 kts 210°
2026-05-06 15:52 41.36972 -88.19801 18047 ft 281 kts 206°
2026-05-06 15:52 41.35083 -88.20629 18639 ft 293 kts 210°
2026-05-06 15:53 41.31150 -88.23634 20073 ft 298 kts 220°
2026-05-06 15:53 41.24849 -88.29302 22192 ft 309 kts 221°
2026-05-06 15:53 41.18293 -88.34890 23469 ft 327 kts 219°
2026-05-06 15:53 41.10968 -88.40469 24680 ft 344 kts 217°
2026-05-06 15:54 41.03388 -88.46058 26595 ft 350 kts 220°
2026-05-06 15:54 40.95993 -88.51760 30270 ft 335 kts 223°
2026-05-06 15:54 40.89104 -88.57330 32479 ft 328 kts 226°
2026-05-06 15:54 40.81987 -88.63248 32005 ft 341 kts 226°
2026-05-06 15:55 40.74696 -88.69119 31992 ft 353 kts 223°
2026-05-06 15:55 40.66838 -88.75007 32017 ft 365 kts 222°
2026-05-06 15:55 40.51883 -88.86352 30077 ft 390 kts 221°
2026-05-06 15:56 40.49498 -88.88271 28096 ft 404 kts 221°
2026-05-06 15:56 40.47368 -88.89917 29522 ft 349 kts 222°
2026-05-06 15:56 40.45454 -88.91341 30669 ft 317 kts 223°
2026-05-06 15:56 40.43697 -88.92693 31424 ft 304 kts 225°
2026-05-06 15:57 40.41940 -88.94101 31837 ft 301 kts 226°
2026-05-06 15:57 40.38502 -88.96891 32342 ft 305 kts 227°
2026-05-06 15:57 40.34901 -88.99751 32857 ft 309 kts 226°
2026-05-06 15:57 40.31187 -89.02605 33361 ft 312 kts 225°
2026-05-06 15:58 40.27424 -89.05441 33863 ft 315 kts 225°
2026-05-06 15:58 40.23692 -89.08263 34327 ft 317 kts 225°
2026-05-06 15:58 40.19933 -89.11148 34810 ft 317 kts 226°
2026-05-06 15:58 40.16173 -89.14062 35293 ft 319 kts 225°
2026-05-06 15:59 40.12383 -89.16975 36115 ft 320 kts 225°
2026-05-06 15:59 40.08573 -89.19881 36583 ft 321 kts 225°
2026-05-06 15:59 40.04700 -89.22830 36858 ft 325 kts 224°
2026-05-06 15:59 40.00803 -89.25809 37122 ft 328 kts 225°
2026-05-06 16:00 39.96921 -89.28780 37384 ft 332 kts 225°
2026-05-06 16:00 39.92941 -89.31808 37645 ft 335 kts 225°
2026-05-06 16:00 39.88911 -89.34851 37904 ft 338 kts 224°
2026-05-06 16:00 39.84879 -89.37895 38023 ft 342 kts 224°
2026-05-06 16:01 39.76617 -89.44249 38023 ft 353 kts 224°
2026-05-06 16:01 39.68116 -89.50685 38024 ft 362 kts 223°
2026-05-06 16:02 39.59526 -89.57041 38028 ft 361 kts 224°
2026-05-06 16:02 39.50902 -89.63497 38032 ft 360 kts 225°
2026-05-06 16:03 39.42332 -89.69950 38032 ft 360 kts 223°
2026-05-06 16:03 39.33759 -89.76331 38034 ft 359 kts 224°
2026-05-06 16:04 39.25240 -89.82685 38037 ft 358 kts 224°
2026-05-06 16:04 39.16775 -89.88959 38037 ft 355 kts 224°
2026-05-06 16:05 39.08238 -89.95293 38044 ft 359 kts 224°
2026-05-06 16:05 38.99727 -90.01587 38050 ft 355 kts 224°
2026-05-06 16:06 38.91233 -90.07804 38048 ft 356 kts 224°
2026-05-06 16:06 38.82737 -90.14079 38056 ft 355 kts 224°
2026-05-06 16:07 38.74222 -90.20307 38056 ft 356 kts 223°
2026-05-06 16:07 38.65812 -90.26409 38054 ft 353 kts 223°
2026-05-06 16:08 38.57396 -90.32537 38056 ft 353 kts 223°
2026-05-06 16:08 38.48968 -90.38680 38054 ft 354 kts 224°
2026-05-06 16:09 38.40608 -90.44743 38046 ft 350 kts 224°
2026-05-06 16:09 38.32150 -90.50818 38045 ft 352 kts 224°
2026-05-06 16:10 38.23787 -90.56832 38046 ft 353 kts 224°
2026-05-06 16:10 38.15343 -90.62901 38046 ft 353 kts 223°
2026-05-06 16:11 38.07030 -90.68861 38042 ft 349 kts 223°
2026-05-06 16:11 37.98656 -90.74799 38040 ft 351 kts 223°
2026-05-06 16:12 37.90298 -90.80790 38038 ft 351 kts 223°
2026-05-06 16:12 37.81859 -90.86800 38036 ft 351 kts 222°
2026-05-06 16:13 37.73502 -90.92709 38035 ft 351 kts 223°
2026-05-06 16:13 37.65075 -90.98658 38034 ft 349 kts 223°
2026-05-06 16:14 37.56446 -91.04327 38034 ft 362 kts 218°
2026-05-06 16:14 37.51691 -91.06435 38030 ft 374 kts 212°
2026-05-06 16:14 37.46736 -91.08113 38032 ft 377 kts 211°
2026-05-06 16:15 37.36811 -91.11714 38035 ft 373 kts 214°
2026-05-06 16:15 37.27251 -91.15897 38031 ft 368 kts 214°
2026-05-06 16:16 37.17715 -91.19958 38037 ft 369 kts 213°
2026-05-06 16:16 37.08070 -91.23950 38029 ft 371 kts 213°
2026-05-06 16:17 36.98434 -91.27921 38030 ft 371 kts 214°
2026-05-06 16:17 36.88738 -91.31895 38031 ft 371 kts 214°
2026-05-06 16:18 36.79113 -91.35872 38033 ft 372 kts 214°
2026-05-06 16:18 36.69436 -91.39886 38029 ft 373 kts 214°
2026-05-06 16:19 36.59727 -91.43823 38037 ft 370 kts 213°
2026-05-06 16:19 36.50083 -91.47765 38031 ft 373 kts 214°
2026-05-06 16:20 36.40237 -91.51784 38031 ft 375 kts 214°
2026-05-06 16:20 36.30571 -91.55673 38028 ft 369 kts 213°
2026-05-06 16:21 36.20828 -91.59637 38034 ft 375 kts 213°
2026-05-06 16:21 36.11045 -91.63625 38042 ft 374 kts 213°
2026-05-06 16:22 36.01381 -91.67480 38046 ft 372 kts 212°
2026-05-06 16:22 35.91694 -91.71400 38058 ft 374 kts 212°
2026-05-06 16:23 35.81952 -91.75308 38066 ft 373 kts 212°
2026-05-06 16:23 35.72201 -91.79197 38063 ft 376 kts 212°
2026-05-06 16:24 35.62375 -91.83105 38057 ft 375 kts 212°
2026-05-06 16:24 35.52640 -91.86991 38053 ft 375 kts 213°
2026-05-06 16:25 35.42818 -91.90900 38050 ft 375 kts 212°
2026-05-06 16:25 35.33094 -91.94754 38053 ft 374 kts 212°
2026-05-06 16:26 35.23312 -91.98614 38049 ft 379 kts 212°
2026-05-06 16:26 35.13453 -92.02506 38046 ft 374 kts 212°
2026-05-06 16:27 35.03708 -92.06313 38046 ft 374 kts 212°
2026-05-06 16:27 34.93904 -92.10174 38048 ft 378 kts 212°
2026-05-06 16:28 34.84078 -92.14005 38050 ft 375 kts 212°
2026-05-06 16:28 34.74754 -92.18869 38048 ft 361 kts 222°
2026-05-06 16:29 34.66486 -92.25263 38048 ft 355 kts 224°
2026-05-06 16:29 34.58098 -92.31431 38047 ft 361 kts 221°
2026-05-06 16:30 34.50857 -92.36324 38044 ft 365 kts 221°
2026-05-06 16:30 34.40744 -92.43271 38034 ft 363 kts 222°
2026-05-06 16:31 34.32181 -92.49282 38026 ft 362 kts 221°
2026-05-06 16:31 34.23541 -92.55329 38029 ft 364 kts 221°
2026-05-06 16:32 34.14934 -92.61374 38027 ft 364 kts 221°
2026-05-06 16:32 34.06168 -92.67340 38017 ft 365 kts 221°
2026-05-06 16:33 33.97446 -92.73328 38012 ft 366 kts 221°
2026-05-06 16:34 33.84411 -92.82234 38017 ft 366 kts 221°
2026-05-06 16:34 33.75683 -92.88223 38014 ft 367 kts 221°
2026-05-06 16:35 33.66925 -92.94177 38009 ft 367 kts 220°
2026-05-06 16:35 33.58140 -93.00108 37994 ft 369 kts 220°
2026-05-06 16:36 33.49326 -93.06091 37990 ft 367 kts 221°
2026-05-06 16:36 33.40760 -93.12359 37991 ft 367 kts 222°
2026-05-06 16:37 33.32251 -93.18781 37988 ft 368 kts 223°
2026-05-06 16:37 33.23575 -93.25050 37981 ft 372 kts 221°
2026-05-06 16:38 33.14751 -93.31304 37984 ft 371 kts 221°
2026-05-06 16:38 33.06145 -93.37613 37964 ft 370 kts 222°
2026-05-06 16:39 32.97442 -93.43951 37958 ft 375 kts 221°
2026-05-06 16:39 32.88681 -93.50222 37967 ft 375 kts 221°
2026-05-06 16:40 32.79848 -93.56574 37968 ft 377 kts 221°
2026-05-06 16:40 32.71677 -93.62426 37966 ft 375 kts 221°
2026-05-06 16:41 32.67179 -93.65653 37965 ft 376 kts 221°
2026-05-06 16:41 32.62665 -93.68906 37964 ft 377 kts 220°
2026-05-06 16:42 32.58108 -93.72154 37967 ft 378 kts 221°
2026-05-06 16:42 32.53563 -93.75402 37963 ft 377 kts 220°
2026-05-06 16:43 32.49026 -93.78643 37964 ft 376 kts 221°
2026-05-06 16:43 32.44481 -93.81885 37960 ft 379 kts 220°
2026-05-06 16:44 32.39916 -93.85123 37961 ft 378 kts 220°
2026-05-06 16:44 32.35381 -93.88351 37960 ft 378 kts 220°
2026-05-06 16:45 32.30827 -93.91582 37957 ft 379 kts 220°
2026-05-06 16:45 32.26226 -93.94838 37956 ft 378 kts 220°
2026-05-06 16:46 32.21648 -93.98085 37951 ft 383 kts 220°
2026-05-06 16:46 32.17054 -94.01335 37941 ft 380 kts 220°
2026-05-06 16:47 32.12434 -94.04607 37939 ft 381 kts 220°
2026-05-06 16:47 32.07822 -94.07851 37938 ft 382 kts 220°
2026-05-06 16:48 32.03207 -94.11099 37934 ft 381 kts 220°
2026-05-06 16:48 31.98585 -94.14354 37935 ft 383 kts 220°
2026-05-06 16:49 31.93955 -94.17612 37932 ft 384 kts 220°
2026-05-06 16:49 31.89326 -94.20860 37932 ft 381 kts 220°
2026-05-06 16:50 31.84731 -94.24077 37934 ft 385 kts 220°
2026-05-06 16:50 31.80067 -94.27340 37933 ft 384 kts 220°
2026-05-06 16:51 31.75400 -94.30602 37930 ft 384 kts 220°
2026-05-06 16:51 31.70760 -94.33855 37935 ft 384 kts 219°
2026-05-06 16:52 31.66116 -94.37101 37934 ft 384 kts 219°
2026-05-06 16:52 31.61500 -94.40312 37929 ft 382 kts 219°
2026-05-06 16:53 31.56846 -94.43555 37929 ft 385 kts 219°
2026-05-06 16:53 31.52202 -94.46781 37929 ft 384 kts 219°
2026-05-06 16:54 31.47521 -94.50032 37929 ft 385 kts 220°
2026-05-06 16:54 31.42880 -94.53244 37928 ft 385 kts 219°
2026-05-06 16:55 31.38222 -94.56480 37923 ft 385 kts 219°
2026-05-06 16:55 31.33567 -94.59701 37925 ft 385 kts 219°
2026-05-06 16:56 31.28911 -94.62920 37928 ft 386 kts 219°
2026-05-06 16:56 31.24261 -94.66128 37925 ft 385 kts 219°
2026-05-06 16:57 31.19558 -94.69372 37919 ft 386 kts 219°
2026-05-06 16:57 31.14859 -94.72509 37918 ft 390 kts 216°
2026-05-06 16:58 31.09852 -94.75218 37905 ft 394 kts 213°
2026-05-06 16:58 31.04782 -94.77792 37913 ft 393 kts 213°
2026-05-06 16:59 30.99714 -94.80410 37910 ft 394 kts 213°
2026-05-06 16:59 30.94683 -94.83047 37911 ft 393 kts 213°
2026-05-06 17:00 30.89620 -94.85706 37914 ft 394 kts 213°
2026-05-06 17:00 30.84552 -94.88367 37909 ft 394 kts 213°
2026-05-06 17:01 30.79524 -94.91001 37911 ft 395 kts 213°
2026-05-06 17:01 30.74482 -94.93641 37903 ft 394 kts 213°
2026-05-06 17:02 30.69394 -94.96306 37897 ft 396 kts 213°